• In Germany
  • List of Countries
  • For 7 days
  • Water Temperature
  • Satellite Maps
  • Weather Map
  • Weather Widgets
  • user-avatar
    Login

    Hourly Weather Lankaran

    Today, 17 August, Thursday

    Time Temperature Precipitation Wind Pressure Humidity
    00:00 +19°C° 0.1 mm 1 mps 635 mmHg 76%
    01:00 +18°C° 0 mm 1 mps 634 mmHg 77%
    02:00 +18°C° 0 mm 1 mps 634 mmHg 77%
    03:00 +18°C° 0 mm 1 mps 634 mmHg 77%
    04:00 +18°C° 0 mm 1 mps 634 mmHg 74%
    05:00 +18°C° 0 mm 1 mps 634 mmHg 72%
    06:00 +19°C° 0 mm 1 mps 634 mmHg 70%
    07:00 +20°C° 0 mm 2 mps 635 mmHg 61%
    08:00 +23°C° 0 mm 2 mps 635 mmHg 52%
    09:00 +25°C° 0 mm 2 mps 636 mmHg 43%
    10:00 +26°C° 0.1 mm 3 mps 636 mmHg 39%
    11:00 +27°C° 0.1 mm 3 mps 636 mmHg 36%
    12:00 +28°C° 0.1 mm 3 mps 636 mmHg 32%
    13:00 +28°C° 0.4 mm 3 mps 636 mmHg 32%
    14:00 +28°C° 0.4 mm 4 mps 636 mmHg 32%
    15:00 +28°C° 0.4 mm 4 mps 635 mmHg 32%
    16:00 +26°C° 0.4 mm 3 mps 635 mmHg 40%
    17:00 +24°C° 0.4 mm 3 mps 634 mmHg 47%
    18:00 +21°C° 0.4 mm 3 mps 634 mmHg 55%
    19:00 +20°C° 0.3 mm 2 mps 634 mmHg 59%
    20:00 +20°C° 0.3 mm 2 mps 634 mmHg 62%
    21:00 +20°C° 0.3 mm 1 mps 634 mmHg 66%
    22:00 +19°C° 0 mm 1 mps 634 mmHg 67%
    23:00 +19°C° 0 mm 1 mps 633 mmHg 68%

    Tomorrow, 18 August, Friday

    Time Temperature Precipitation Wind Pressure Humidity
    00:00 +19°C° 0 mm 1 mps 633 mmHg 69%
    01:00 +18°C° 0 mm 1 mps 633 mmHg 70%
    02:00 +18°C° 0 mm 1 mps 633 mmHg 70%
    03:00 +18°C° 0 mm 1 mps 632 mmHg 70%
    04:00 +17°C° 0 mm 2 mps 633 mmHg 68%
    05:00 +17°C° 0 mm 2 mps 633 mmHg 65%
    06:00 +18°C° 0 mm 2 mps 633 mmHg 63%
    07:00 +20°C° 0 mm 2 mps 634 mmHg 56%
    08:00 +22°C° 0 mm 3 mps 635 mmHg 48%
    09:00 +25°C° 0 mm 3 mps 635 mmHg 40%
    10:00 +26°C° 0 mm 3 mps 635 mmHg 36%
    11:00 +27°C° 0 mm 3 mps 635 mmHg 32%
    12:00 +29°C° 0 mm 3 mps 636 mmHg 27%
    13:00 +29°C° 0 mm 4 mps 635 mmHg 27%
    14:00 +29°C° 0 mm 4 mps 635 mmHg 26%
    15:00 +29°C° 0 mm 4 mps 635 mmHg 26%
    16:00 +27°C° 0 mm 4 mps 635 mmHg 30%
    17:00 +26°C° 0 mm 3 mps 634 mmHg 35%
    18:00 +24°C° 0 mm 3 mps 634 mmHg 39%
    19:00 +21°C° 0 mm 3 mps 634 mmHg 44%
    20:00 +20°C° 0 mm 2 mps 635 mmHg 49%
    21:00 +18°C° 0 mm 2 mps 635 mmHg 54%
    22:00 +18°C° 0 mm 2 mps 635 mmHg 53%
    23:00 +18°C° 0 mm 2 mps 635 mmHg 51%

    Day after tomorrow, 19 August, Saturday

    Time Temperature Precipitation Wind Pressure Humidity
    00:00 +17°C° 0 mm 2 mps 635 mmHg 50%
    01:00 +17°C° 0 mm 2 mps 635 mmHg 49%
    02:00 +17°C° 0 mm 2 mps 635 mmHg 48%
    03:00 +17°C° 0 mm 2 mps 635 mmHg 47%
    04:00 +17°C° 0 mm 2 mps 635 mmHg 46%
    05:00 +18°C° 0 mm 2 mps 635 mmHg 45%
    06:00 +18°C° 0 mm 2 mps 636 mmHg 44%
    07:00 +20°C° 0 mm 2 mps 637 mmHg 41%
    08:00 +22°C° 0 mm 3 mps 637 mmHg 37%
    09:00 +25°C° 0 mm 3 mps 638 mmHg 33%
    10:00 +26°C° 0 mm 3 mps 638 mmHg 30%
    11:00 +28°C° 0 mm 4 mps 638 mmHg 28%
    12:00 +29°C° 0 mm 4 mps 638 mmHg 26%
    13:00 +29°C° 0 mm 4 mps 638 mmHg 27%
    14:00 +29°C° 0 mm 4 mps 638 mmHg 27%
    15:00 +28°C° 0 mm 4 mps 638 mmHg 28%
    16:00 +27°C° 0 mm 4 mps 638 mmHg 33%
    17:00 +25°C° 0 mm 3 mps 637 mmHg 38%
    18:00 +24°C° 0 mm 3 mps 637 mmHg 43%
    19:00 +21°C° 0 mm 3 mps 637 mmHg 49%
    20:00 +19°C° 0 mm 2 mps 637 mmHg 55%
    21:00 +18°C° 0 mm 2 mps 637 mmHg 61%
    22:00 +18°C° 0 mm 2 mps 637 mmHg 56%
    23:00 +17°C° 0 mm 2 mps 637 mmHg 50%

    20 August, Sunday

    Time Temperature Precipitation Wind Pressure Humidity
    00:00 +17°C° 0 mm 2 mps 636 mmHg 44%
    01:00 +17°C° 0 mm 2 mps 636 mmHg 41%
    02:00 +18°C° 0 mm 1 mps 636 mmHg 38%
    03:00 +16°C° 0 mm 1 mps 636 mmHg 36%
    04:00 +18°C° 0 mm 1 mps 636 mmHg 35%
    05:00 +18°C° 0 mm 1 mps 636 mmHg 33%
    06:00 +19°C° 0 mm 1 mps 637 mmHg 32%
    07:00 +20°C° 0 mm 2 mps 637 mmHg 29%
    08:00 +24°C° 0 mm 2 mps 638 mmHg 26%
    09:00 +26°C° 0 mm 2 mps 638 mmHg 23%
    10:00 +27°C° 0 mm 3 mps 638 mmHg 21%
    11:00 +28°C° 0 mm 3 mps 638 mmHg 19%
    12:00 +29°C° 0 mm 4 mps 638 mmHg 18%
    13:00 +29°C° 0 mm 4 mps 638 mmHg 18%
    14:00 +29°C° 0 mm 4 mps 637 mmHg 19%
    15:00 +29°C° 0 mm 4 mps 637 mmHg 19%
    16:00 +28°C° 0 mm 3 mps 637 mmHg 22%
    17:00 +26°C° 0 mm 3 mps 636 mmHg 26%
    18:00 +24°C° 0 mm 2 mps 636 mmHg 29%
    19:00 +23°C° 0 mm 2 mps 636 mmHg 31%
    20:00 +20°C° 0 mm 2 mps 636 mmHg 34%
    21:00 +19°C° 0 mm 2 mps 636 mmHg 36%
    22:00 +20°C° 0 mm 1 mps 636 mmHg 35%
    23:00 +19°C° 0 mm 1 mps 635 mmHg 35%

    21 August, Monday

    Time Temperature Precipitation Wind Pressure Humidity
    00:00 +19°C° 0 mm 1 mps 635 mmHg 34%
    01:00 +19°C° 0 mm 1 mps 635 mmHg 33%
    02:00 +19°C° 0 mm 1 mps 635 mmHg 33%
    03:00 +18°C° 0 mm 1 mps 635 mmHg 33%
    04:00 +19°C° 0 mm 1 mps 635 mmHg 32%
    05:00 +19°C° 0 mm 1 mps 635 mmHg 30%
    06:00 +20°C° 0 mm 1 mps 635 mmHg 29%
    07:00 +22°C° 0 mm 1 mps 636 mmHg 26%
    08:00 +24°C° 0 mm 2 mps 637 mmHg 24%
    09:00 +27°C° 0 mm 2 mps 637 mmHg 22%
    10:00 +28°C° 0 mm 3 mps 637 mmHg 21%
    11:00 +29°C° 0 mm 3 mps 637 mmHg 21%
    12:00 +30°C° 0 mm 3 mps 637 mmHg 21%
    13:00 +30°C° 0 mm 3 mps 637 mmHg 22%
    14:00 +30°C° 0 mm 3 mps 636 mmHg 22%
    15:00 +30°C° 0 mm 3 mps 636 mmHg 23%
    16:00 +28°C° 0 mm 3 mps 636 mmHg 27%
    17:00 +27°C° 0 mm 2 mps 635 mmHg 30%
    18:00 +25°C° 0 mm 2 mps 635 mmHg 34%
    19:00 +24°C° 0 mm 2 mps 635 mmHg 38%
    20:00 +22°C° 0 mm 1 mps 635 mmHg 42%
    21:00 +20°C° 0 mm 1 mps 635 mmHg 45%
    22:00 +20°C° 0 mm 1 mps 635 mmHg 45%
    23:00 +20°C° 0 mm 1 mps 635 mmHg 44%

    22 August, Tuesday

    Time Temperature Precipitation Wind Pressure Humidity
    00:00 +20°C° 0 mm 1 mps 634 mmHg 43%
    01:00 +19°C° 0 mm 1 mps 634 mmHg 44%
    02:00 +19°C° 0 mm 1 mps 634 mmHg 44%
    03:00 +18°C° 0 mm 1 mps 634 mmHg 45%
    04:00 +19°C° 0 mm 1 mps 634 mmHg 44%
    05:00 +19°C° 0 mm 1 mps 635 mmHg 42%
    06:00 +20°C° 0 mm 1 mps 635 mmHg 41%
    07:00 +22°C° 0 mm 1 mps 636 mmHg 36%
    08:00 +25°C° 0 mm 2 mps 636 mmHg 31%
    09:00 +27°C° 0 mm 2 mps 637 mmHg 26%
    10:00 +28°C° 0 mm 2 mps 637 mmHg 24%
    11:00 +29°C° 0 mm 3 mps 637 mmHg 22%
    12:00 +30°C° 0 mm 3 mps 637 mmHg 21%
    13:00 +30°C° 0 mm 3 mps 636 mmHg 21%
    14:00 +31°C° 0 mm 3 mps 636 mmHg 21%
    15:00 +31°C° 0 mm 3 mps 636 mmHg 21%
    16:00 +29°C° 0 mm 3 mps 635 mmHg 25%
    17:00 +27°C° 0 mm 3 mps 635 mmHg 29%
    18:00 +26°C° 0 mm 2 mps 634 mmHg 33%
    19:00 +24°C° 0 mm 2 mps 634 mmHg 37%
    20:00 +23°C° 0 mm 2 mps 634 mmHg 42%
    21:00 +21°C° 0 mm 1 mps 634 mmHg 46%
    22:00 +21°C° 0 mm 1 mps 634 mmHg 45%
    23:00 +20°C° 0 mm 1 mps 634 mmHg 45%
    Show more